FW9784 Weather Reports


Display with metric or nautical units.
time (UTC)temp
F
wind
direction
speed
MPH
gust
MPH
rain 1hr
in
rain 24hr
in
rain mn
in
humidity
%
barometer
mb
20260509235406 65 251 4.0 9.0 0.00 0.00 0.00 83 1011.3
20260509234859 66 0 5.0 11.0 0.00 0.00 0.00 83 1011.3
20260509234738 66 199 5.0 11.0 0.00 0.00 0.00 82 1011.3
20260509233847 67 235 4.0 8.0 0.00 0.00 0.00 81 1011.3
20260509233346 67 199 4.0 9.0 0.00 0.00 0.00 80 1011.3
20260509232845 68 273 4.0 9.0 0.00 0.00 0.00 79 1011.2
20260509232646 69 248 4.0 9.0 0.00 0.00 0.00 79 1011.3
20260509231845 69 248 4.0 8.0 0.00 0.00 0.00 79 1011.2
20260509231659 69 223 5.0 11.0 0.00 0.00 0.00 79 1011.3
20260509230845 69 211 5.0 11.0 0.00 0.00 0.00 78 1011.2
20260509230344 69 209 4.0 10.0 0.00 0.00 0.00 78 1011.3
20260509225844 69 253 4.0 10.0 0.00 0.00 0.00 78 1011.3
20260509225345 69 0 5.0 10.0 0.00 0.00 0.00 79 1011.3
20260509224844 69 0 5.0 12.0 0.00 0.00 0.00 79 1011.3
20260509224652 69 185 5.0 12.0 0.00 0.00 0.00 78 1011.4
20260509223844 69 193 5.0 10.0 0.00 0.00 0.00 77 1011.4
20260509223346 69 170 4.0 11.0 0.00 0.00 0.00 77 1011.5
20260509222837 69 0 5.0 11.0 0.00 0.00 0.00 77 1011.6
20260509222331 69 252 5.0 11.0 0.00 0.00 0.00 78 1011.8
20260509221831 69 0 5.0 11.0 0.00 0.00 0.00 77 1011.8
20260509221330 70 201 5.0 11.0 0.00 0.00 0.00 77 1011.9
20260509220830 70 252 5.0 11.0 0.00 0.00 0.00 77 1012.0
20260509220334 70 207 5.0 11.0 0.00 0.00 0.00 76 1012.0
20260509215833 70 224 4.0 9.0 0.00 0.00 0.00 76 1012.1
20260509215711 70 0 5.0 9.0 0.00 0.00 0.00 76 1012.2
20260509214830 70 0 4.0 9.0 0.00 0.00 0.00 76 1012.1
20260509214332 70 0 4.0 9.0 0.00 0.00 0.00 76 1012.1
20260509213830 70 223 4.0 12.0 0.00 0.00 0.00 77 1012.2
20260509213331 69 287 5.0 12.0 0.00 0.00 0.00 77 1012.3
20260509213059 70 0 4.0 9.0 0.00 0.00 0.00 76 1012.3
20260509213004 70 0 5.0 10.0 0.00 0.00 0.00 76 1012.3
20260509211829 70 0 4.0 10.0 0.00 0.00 0.00 77 1012.3
20260509211657 70 227 5.0 11.0 0.00 0.00 0.00 77 1012.3
20260509211210 70 202 5.0 11.0 0.00 0.00 0.00 77 1012.5
20260509210328 70 0 5.0 12.0 0.00 0.00 0.00 77 1012.6
20260509210217 70 216 4.0 12.0 0.00 0.00 0.00 76 1012.4
20260509205328 69 290 4.0 9.0 0.00 0.00 0.00 77 1012.6
20260509205157 69 196 4.0 9.0 0.00 0.00 0.00 78 1012.7
20260509204328 69 219 4.0 9.0 0.00 0.00 0.00 77 1012.7
20260509203829 69 211 4.0 10.0 0.00 0.00 0.00 78 1012.8
20260509203330 69 281 4.0 10.0 0.00 0.00 0.00 78 1012.8
20260509202827 69 284 4.0 11.0 0.00 0.00 0.00 77 1012.9
20260509202326 70 219 4.0 11.0 0.00 0.00 0.00 77 1012.8
20260509201828 70 211 4.0 11.0 0.00 0.00 0.00 76 1012.8
20260509201327 70 0 4.0 12.0 0.00 0.00 0.00 77 1012.8
20260509201128 70 270 4.0 12.0 0.00 0.00 0.00 77 1012.8
20260509200716 70 0 4.0 9.0 0.00 0.00 0.00 77 1012.8
20260509195828 69 231 4.0 10.0 0.00 0.00 0.00 77 1012.9
20260509195716 69 228 4.0 10.0 0.00 0.00 0.00 77 1012.9
20260509194826 69 201 4.0 9.0 0.00 0.00 0.00 77 1013.0
20260509194325 69 215 4.0 9.0 0.00 0.00 0.00 78 1012.9
20260509193828 69 213 4.0 9.0 0.00 0.00 0.00 78 1013.0
20260509193330 70 254 4.0 9.0 0.00 0.00 0.00 77 1013.1
20260509192826 69 0 4.0 9.0 0.00 0.00 0.00 77 1013.1
20260509192326 70 194 4.0 9.0 0.00 0.00 0.00 78 1013.2
20260509191829 70 211 4.0 10.0 0.00 0.00 0.00 78 1013.2
20260509191340 69 197 4.0 10.0 0.00 0.00 0.00 78 1013.2
20260509190829 69 234 4.0 9.0 0.00 0.00 0.00 78 1013.3
20260509190330 69 234 4.0 10.0 0.00 0.00 0.00 78 1013.3
20260509185828 69 0 4.0 10.0 0.00 0.00 0.00 79 1013.3
20260509185329 68 214 4.0 8.0 0.00 0.00 0.00 79 1013.4
20260509185055 68 0 4.0 10.0 0.00 0.00 0.00 79 1013.6
20260509184957 68 0 4.0 10.0 0.00 0.00 0.00 79 1013.5
20260509183823 68 235 4.0 8.0 0.00 0.00 0.00 80 1013.5
20260509183322 68 213 4.0 8.0 0.00 0.00 0.00 80 1013.5
20260509182829 68 259 4.0 8.0 0.00 0.00 0.00 81 1013.4
20260509182324 68 214 4.0 9.0 0.00 0.00 0.00 81 1013.5
20260509181823 68 227 3.0 9.0 0.00 0.00 0.00 81 1013.5
20260509181322 67 229 3.0 9.0 0.00 0.00 0.00 81 1013.5
20260509180822 67 232 4.0 9.0 0.00 0.00 0.00 81 1013.5
20260509180322 68 187 3.0 8.0 0.00 0.00 0.00 81 1013.5
20260509175818 68 192 3.0 7.0 0.00 0.00 0.00 81 1013.6
20260509175320 67 225 3.0 8.0 0.00 0.00 0.00 83 1013.7
20260509174817 67 248 3.0 8.0 0.00 0.00 0.00 82 1013.6
20260509174319 67 255 3.0 8.0 0.00 0.00 0.00 82 1013.7
20260509173815 67 206 3.0 8.0 0.00 0.00 0.00 82 1013.6
20260509173321 67 214 2.0 6.0 0.00 0.00 0.00 81 1013.6
20260509172820 67 213 2.0 7.0 0.00 0.00 0.00 83 1013.6
20260509172323 67 304 2.0 7.0 0.00 0.00 0.00 83 1013.6
20260509171816 67 235 2.0 9.0 0.00 0.00 0.00 83 1013.6
20260509171636 67 245 2.0 9.0 0.00 0.00 0.00 83 1013.5
20260509170818 66 63 1.0 7.0 0.00 0.00 0.00 83 1013.5
20260509170313 66 158 1.0 5.0 0.00 0.00 0.00 84 1013.4
20260509165811 66 171 2.0 5.0 0.00 0.00 0.00 84 1013.3
20260509165308 65 142 2.0 5.0 0.00 0.00 0.00 84 1013.4
20260509164809 65 145 1.0 5.0 0.00 0.00 0.00 84 1013.3
20260509164318 65 105 0.0 3.0 0.00 0.00 0.00 85 1013.4
20260509163809 65 71 1.0 2.0 0.00 0.00 0.00 85 1013.3
20260509163304 65 71 1.0 2.0 0.00 0.00 0.00 85 1013.3
20260509162801 64 71 1.0 3.0 0.00 0.00 0.00 86 1013.4
20260509162300 64 71 2.0 5.0 0.00 0.00 0.00 85 1013.3
20260509161758 64 118 2.0 5.0 0.00 0.00 0.00 85 1013.3
20260509161257 64 51 1.0 4.0 0.00 0.00 0.00 86 1013.3
20260509160801 64 101 0.0 2.0 0.00 0.00 0.00 87 1013.4
20260509160256 64 109 1.0 3.0 0.00 0.00 0.00 87 1013.3
20260509155747 64 110 2.0 6.0 0.00 0.00 0.00 87 1013.4
20260509155253 64 109 2.0 6.0 0.00 0.00 0.00 88 1013.4
20260509154744 63 102 1.0 4.0 0.00 0.00 0.00 88 1013.4
20260509154242 63 142 1.0 4.0 0.00 0.00 0.00 88 1013.5
20260509153741 63 109 1.0 4.0 0.00 0.00 0.00 89 1013.5
20260509153244 63 171 1.0 2.0 0.00 0.00 0.00 89 1013.4
20260509152739 63 112 1.0 2.0 0.00 0.00 0.00 89 1013.5
20260509152321 62 91 1.0 4.0 0.00 0.00 0.00 90 1013.4
20260509152317 62 142 1.0 3.0 0.00 0.00 0.00 90 1013.5
20260509152307 62 105 1.0 3.0 0.00 0.00 0.00 90 1013.4
20260509150736 62 161 1.0 4.0 0.00 0.00 0.00 91 1013.4
20260509150233 62 111 1.0 4.0 0.00 0.00 0.00 91 1013.4
20260509145733 62 0 0.0 3.0 0.00 0.00 0.00 91 1013.5
20260509145235 61 0 0.0 0.0 0.00 0.00 0.00 91 1013.4
20260509144730 61 0 0.0 0.0 0.00 0.00 0.00 92 1013.4
20260509144327 61 0 0.0 0.0 0.00 0.00 0.00 92 1013.4
20260509144319 61 0 0.0 0.0 0.00 0.00 0.00 92 1013.3
20260509142717 61 0 0.0 1.0 0.00 0.00 0.00 92 1013.4
20260509142555 61 0 0.0 2.0 0.00 0.00 0.00 92 1013.4
20260509142104 61 0 1.0 2.0 0.00 0.00 0.00 92 1013.4
20260509141218 61 0 1.0 2.0 0.00 0.00 0.00 92 1013.3
20260509140712 61 0 1.0 2.0 0.00 0.00 0.00 93 1013.3
20260509140212 61 0 1.0 2.0 0.00 0.00 0.00 93 1013.3
20260509135717 60 0 0.0 2.0 0.00 0.00 0.00 93 1013.2
20260509135209 60 0 0.0 2.0 0.00 0.00 0.00 93 1013.1
20260509134708 60 0 0.0 2.0 0.00 0.00 0.00 93 1013.1
20260509134211 60 0 0.0 2.0 0.00 0.00 0.00 93 1013.1
20260509133832 60 0 0.0 3.0 0.00 0.00 0.00 93 1013.1
20260509133828 60 0 1.0 3.0 0.00 0.00 0.00 92 1013.0
20260509133751 60 0 1.0 2.0 0.00 0.00 0.00 93 1013.2
20260509132208 60 0 0.0 2.0 0.00 0.00 0.00 92 1013.1
20260509131705 60 0 1.0 3.0 0.00 0.00 0.00 92 1012.9
20260509131211 60 0 1.0 3.0 0.00 0.00 0.00 92 1013.0
20260509130708 60 0 1.0 3.0 0.00 0.00 0.00 92 1012.9
20260509130204 60 0 2.0 4.0 0.00 0.00 0.00 92 1012.9
20260509130025 60 0 1.0 4.0 0.00 0.00 0.00 92 1012.8
20260509125201 60 0 1.0 3.0 0.00 0.00 0.00 92 1012.7
20260509124702 60 0 1.0 4.0 0.00 0.00 0.00 91 1012.7
20260509124200 61 0 2.0 4.0 0.00 0.00 0.00 91 1012.8
20260509123701 61 267 2.0 4.0 0.00 0.00 0.00 91 1012.8
20260509123201 61 223 1.0 4.0 0.00 0.00 0.00 91 1012.7
20260509123026 61 0 1.0 4.0 0.00 0.00 0.00 91 1012.7
20260509122201 61 0 2.0 4.0 0.00 0.00 0.00 91 1012.8
20260509121703 61 242 2.0 4.0 0.00 0.00 0.00 90 1012.7
20260509121202 61 203 1.0 3.0 0.00 0.00 0.00 90 1012.6
20260509120701 61 197 1.0 3.0 0.00 0.00 0.00 90 1012.8
20260509120649 61 226 1.0 4.0 0.00 0.00 0.00 90 1012.7
20260509115702 61 228 1.0 5.0 0.00 0.00 0.00 90 1012.7
20260509115202 61 162 1.0 5.0 0.00 0.00 0.00 90 1012.7
20260509114659 61 159 0.0 1.0 0.00 0.00 0.00 90 1012.7
20260509114159 61 159 1.0 3.0 0.00 0.00 0.00 90 1012.8
20260509113703 61 159 1.0 4.0 0.00 0.00 0.00 90 1012.7
20260509113200 61 148 1.0 4.0 0.00 0.00 0.00 90 1012.7
20260509112702 61 110 1.0 4.0 0.00 0.00 0.00 91 1012.7
20260509112422 61 119 1.0 4.0 0.00 0.00 0.00 91 1012.7
20260509112021 61 248 1.0 2.0 0.00 0.00 0.00 91 1012.8
20260509111531 61 248 1.0 3.0 0.00 0.00 0.00 91 1012.7
20260509110659 61 248 0.0 3.0 0.00 0.00 0.00 91 1012.7
20260509110153 61 248 0.0 2.0 0.00 0.00 0.00 91 1012.7
20260509105655 61 248 1.0 2.0 0.00 0.00 0.00 91 1012.8
20260509105343 61 315 0.0 2.0 0.00 0.00 0.00 91 1012.9
20260509105309 61 315 1.0 3.0 0.00 0.00 0.00 91 1012.9
20260509105021 61 315 0.0 2.0 0.00 0.00 0.00 91 1012.9
20260509104845 61 315 1.0 3.0 0.00 0.00 0.00 91 1012.8
20260509104613 61 315 0.0 2.0 0.00 0.00 0.00 91 1012.8
20260509102654 60 279 0.0 0.0 0.00 0.00 0.00 91 1012.9
20260509102532 60 279 0.0 0.0 0.00 0.00 0.00 91 1012.9
20260509101654 60 279 0.0 0.0 0.00 0.00 0.00 91 1012.9
20260509101149 60 279 0.0 0.0 0.00 0.00 0.00 91 1013.0
20260509100952 60 279 0.0 0.0 0.00 0.00 0.00 91 1012.9
20260509100528 60 279 0.0 0.0 0.00 0.00 0.00 91 1013.0
20260509095652 60 279 0.0 0.0 0.00 0.00 0.00 91 1013.1
20260509095150 60 279 0.0 0.0 0.00 0.00 0.00 91 1013.2
20260509095007 60 279 0.0 0.0 0.00 0.00 0.00 91 1013.2
20260509094150 60 279 0.0 0.0 0.00 0.00 0.00 91 1013.3
20260509094039 60 279 0.0 0.0 0.00 0.00 0.00 91 1013.3
20260509093153 60 279 0.0 0.0 0.00 0.00 0.00 91 1013.3
20260509092955 60 279 0.0 0.0 0.00 0.00 0.00 91 1013.2
20260509092606 60 279 0.0 0.0 0.00 0.00 0.00 91 1013.2
20260509091648 60 279 0.0 0.0 0.00 0.00 0.00 91 1013.3
20260509091143 60 279 0.0 0.0 0.00 0.00 0.00 91 1013.4
20260509090646 60 279 0.0 0.0 0.00 0.00 0.00 91 1013.5
20260509090514 60 279 0.0 0.0 0.00 0.00 0.00 91 1013.4
20260509085639 60 279 1.0 3.0 0.00 0.00 0.00 91 1013.4
20260509085534 60 279 1.0 3.0 0.00 0.00 0.00 91 1013.5
20260509084634 60 279 0.0 3.0 0.00 0.00 0.00 91 1013.4
20260509084129 60 290 0.0 0.0 0.00 0.00 0.00 91 1013.5
20260509083637 60 301 0.0 0.0 0.00 0.00 0.00 91 1013.5
20260509083131 60 279 0.0 0.0 0.00 0.00 0.00 91 1013.6
20260509082630 60 279 0.0 0.0 0.00 0.00 0.00 91 1013.5
20260509082130 60 307 0.0 0.0 0.00 0.00 0.00 91 1013.6
20260509081631 60 307 0.0 0.0 0.00 0.00 0.00 91 1013.6
20260509081131 60 307 0.0 0.0 0.00 0.00 0.00 91 1013.7
20260509081040 60 307 0.0 0.0 0.00 0.00 0.00 91 1013.8
20260509080129 60 307 0.0 0.0 0.00 0.00 0.00 91 1013.9
20260509075630 60 307 0.0 0.0 0.00 0.00 0.00 91 1013.9
20260509075128 60 307 0.0 0.0 0.00 0.00 0.00 91 1013.9
20260509074627 60 307 0.0 1.0 0.00 0.00 0.00 91 1013.9
20260509074127 60 307 0.0 2.0 0.00 0.00 0.00 91 1013.9
20260509073626 60 307 1.0 3.0 0.00 0.00 0.00 92 1013.9
20260509073127 60 307 1.0 3.0 0.00 0.00 0.00 92 1013.9
20260509072626 60 307 1.0 3.0 0.00 0.00 0.00 92 1014.0
20260509072125 60 282 1.0 3.0 0.00 0.00 0.00 92 1014.0
20260509071626 60 273 1.0 3.0 0.00 0.00 0.00 92 1014.1
20260509071125 60 295 1.0 3.0 0.00 0.00 0.00 92 1014.1
20260509071014 60 303 0.0 0.0 0.00 0.00 0.00 92 1014.1
20260509070125 59 303 1.0 3.0 0.00 0.00 0.00 92 1014.1
20260509065617 59 303 1.0 3.0 0.00 0.00 0.00 92 1014.1
20260509065111 59 288 0.0 3.0 0.00 0.00 0.00 92 1014.1
20260509064612 59 254 0.0 0.0 0.00 0.00 0.00 92 1014.1
20260509064055 59 254 0.0 0.0 0.00 0.00 0.00 92 1014.2
20260509063551 59 254 0.0 1.0 0.00 0.00 0.00 92 1014.2
20260509063044 59 254 0.0 1.0 0.00 0.00 0.00 92 1014.1
20260509062540 59 254 0.0 2.0 0.00 0.00 0.00 92 1014.1
20260509062035 59 254 0.0 2.0 0.00 0.00 0.00 92 1014.1
20260509061536 59 254 0.0 3.0 0.00 0.00 0.00 92 1014.1
20260509061033 59 254 1.0 3.0 0.00 0.00 0.00 92 1014.2
20260509060534 59 254 1.0 4.0 0.00 0.00 0.00 92 1014.2
20260509060029 59 254 2.0 4.0 0.00 0.00 0.00 92 1014.2
20260509055530 59 289 1.0 3.0 0.00 0.00 0.00 92 1014.2
20260509055030 59 277 1.0 4.0 0.00 0.00 0.00 92 1014.3
20260509054529 59 268 1.0 4.0 0.00 0.00 0.00 92 1014.3
20260509054349 59 284 2.0 3.0 0.00 0.00 0.00 92 1014.3
20260509053532 59 284 2.0 5.0 0.00 0.00 0.00 92 1014.3
20260509053030 59 315 2.0 5.0 0.00 0.00 0.00 92 1014.4
20260509052529 60 304 2.0 4.0 0.00 0.00 0.00 92 1014.2
20260509052030 59 287 2.0 5.0 0.00 0.00 0.00 92 1014.3
20260509051535 60 278 1.0 5.0 0.00 0.00 0.00 92 1014.2
20260509051439 60 245 1.0 4.0 0.00 0.00 0.00 92 1014.2
20260509050531 59 305 1.0 3.0 0.00 0.00 0.00 92 1014.1
20260509050030 59 300 1.0 3.0 0.00 0.00 0.00 92 1014.1
20260509045530 59 305 2.0 4.0 0.00 0.00 0.00 92 1014.1
20260509045030 59 283 2.0 4.0 0.00 0.00 0.00 92 1014.1
20260509044530 59 262 2.0 4.0 0.00 0.00 0.00 92 1014.1
20260509044030 59 276 2.0 4.0 0.00 0.00 0.00 92 1014.0
20260509043529 59 322 2.0 4.0 0.00 0.00 0.00 92 1014.0
20260509043029 60 302 2.0 6.0 0.00 0.00 0.00 91 1013.9
20260509042528 60 220 2.0 6.0 0.00 0.00 0.00 91 1013.9
20260509042038 60 242 2.0 5.0 0.00 0.00 0.00 91 1014.0
20260509041529 60 201 2.0 6.0 0.00 0.00 0.00 91 1013.9
20260509041029 60 0 2.0 6.0 0.00 0.00 0.00 91 1013.9
20260509040527 60 209 2.0 5.0 0.00 0.00 0.00 91 1013.9
20260509040024 60 303 2.0 5.0 0.00 0.00 0.00 91 1013.9
20260509035525 60 254 2.0 5.0 0.00 0.00 0.00 91 1013.9
20260509035023 60 0 2.0 5.0 0.00 0.00 0.00 90 1013.8
20260509034525 60 231 1.0 4.0 0.00 0.00 0.00 90 1013.8
20260509034021 60 0 2.0 5.0 0.00 0.00 0.00 91 1013.7
20260509033517 60 259 2.0 5.0 0.00 0.00 0.00 91 1013.6
20260509033015 60 0 1.0 4.0 0.00 0.00 0.00 90 1013.5
20260509032855 60 263 2.0 4.0 0.00 0.00 0.00 90 1013.5
20260509032017 60 226 2.0 5.0 0.00 0.00 0.00 90 1013.4
20260509031516 60 265 2.0 7.0 0.00 0.00 0.00 90 1013.4
20260509031015 60 249 2.0 7.0 0.00 0.00 0.00 90 1013.4
20260509030540 61 211 2.0 7.0 0.00 0.00 0.00 90 1013.3
20260509030527 61 250 2.0 5.0 0.00 0.00 0.00 90 1013.3
20260509030126 61 279 2.0 6.0 0.00 0.00 0.00 90 1013.3
20260509025015 61 218 3.0 7.0 0.00 0.00 0.00 89 1013.3
20260509024512 61 262 3.0 9.0 0.00 0.00 0.00 89 1013.3
20260509024013 61 270 3.0 9.0 0.00 0.00 0.00 89 1013.2
20260509023509 61 267 3.0 6.0 0.00 0.00 0.00 89 1013.3
20260509023013 61 265 3.0 6.0 0.00 0.00 0.00 89 1013.1
20260509022509 61 265 2.0 4.0 0.00 0.00 0.00 89 1013.1
20260509022010 61 260 3.0 8.0 0.00 0.00 0.00 89 1013.1
20260509021510 61 269 4.0 8.0 0.00 0.00 0.00 89 1013.2
20260509021008 62 252 4.0 8.0 0.00 0.00 0.00 88 1013.2
20260509020853 62 267 4.0 8.0 0.00 0.00 0.00 88 1013.1
20260509020007 62 215 4.0 8.0 0.00 0.00 0.00 88 1013.0
20260509015503 62 264 4.0 8.0 0.00 0.00 0.00 87 1013.1
20260509015312 62 220 3.0 8.0 0.00 0.00 0.00 87 1012.9
20260509014459 63 212 3.0 7.0 0.00 0.00 0.00 87 1012.9
20260509013959 63 261 3.0 7.0 0.00 0.00 0.00 87 1013.0
20260509013503 63 266 3.0 6.0 0.00 0.00 0.00 87 1012.9
20260509012959 63 197 3.0 8.0 0.00 0.00 0.00 86 1013.0
20260509012501 63 222 3.0 8.0 0.00 0.00 0.00 86 1013.1
20260509011959 63 215 4.0 9.0 0.00 0.00 0.00 86 1013.1
20260509011502 63 256 4.0 10.0 0.00 0.00 0.00 86 1013.0
20260509011000 63 252 3.0 10.0 0.00 0.00 0.00 85 1013.0
20260509010458 63 0 4.0 10.0 0.00 0.00 0.00 86 1013.0
20260509005959 64 257 4.0 10.0 0.00 0.00 0.00 85 1012.9
20260509005458 64 269 4.0 10.0 0.00 0.00 0.00 85 1012.9
20260509004958 64 283 4.0 9.0 0.00 0.00 0.00 85 1013.0
20260509004454 64 269 4.0 10.0 0.00 0.00 0.00 84 1013.0
20260509003956 64 0 4.0 10.0 0.00 0.00 0.00 84 1013.1
20260509003452 64 198 4.0 7.0 0.00 0.00 0.00 84 1013.1
20260509003008 65 0 4.0 10.0 0.00 0.00 0.00 84 1013.0
20260509002836 65 215 4.0 10.0 0.00 0.00 0.00 84 1013.0
20260509001959 65 183 4.0 11.0 0.00 0.00 0.00 84 1013.1
20260509001454 65 248 5.0 11.0 0.00 0.00 0.00 84 1013.1
20260509001259 65 272 5.0 10.0 0.00 0.00 0.00 84 1013.1
20260509000451 65 235 5.0 10.0 0.00 0.00 0.00 83 1013.1
20260508235950 65 290 5.0 10.0 0.00 0.00 0.00 83 1013.1